* Astronomy

Members Login
Post Info TOPIC: Comet C/2010 D2 (WISE)


L

Posts: 131433
Date:
RE: Comet C/2010 D2 (WISE)
Permalink  
 


Comet C/2010 D2 (WISE) makes its closest approach to the Earth  (3.182 AU) on the 29th January, 2011.


__________________


L

Posts: 131433
Date:
Permalink  
 

Orbital elements:
P/2010 D2 (WISE)
T 2010 Mar. 4.3760 TT MPC
q 3.659931 (2000.0) P Q
n 0.0567778 Peri. 119.9462 -0.0783431 -0.8364896
a 6.704252 Node 319.8111 +0.3349585 +0.4903124
e 0.454088 Incl. 57.1882 +0.9389703 -0.2447016
P 17.4
From 28 observations 2010 Feb. 25-Apr. 9.

MPEC 2010 - G65


__________________


L

Posts: 131433
Date:
Permalink  
 

Orbital elements:
P/2010 D2 (WISE)
T 2010 Feb. 27.010 TT MPC
q 3.65735 (2000.0) P Q
n 0.058000 Peri. 119.034 -0.065237 -0.837810
a 6.60976 Node 319.834 +0.327174 +0.495222
e 0.44667 Incl. 57.181 +0.942710 -0.229848
P 17.0
From 23 observations 2010 Feb. 25-Mar. 12.

MPEC 2010 - E56


__________________


L

Posts: 131433
Date:
Permalink  
 

Orbital elements:
C/2010 D2 (WISE)
T 2010 Apr. 15.846 TT MPC
q 3.91692 (2000.0) P Q
Peri. 129.121 -0.163633 -0.776660
Node 314.893 +0.402604 +0.510348
e 1.0 Incl. 59.167 +0.900630 -0.369248
From 19 observations 2010 Feb. 25-Mar. 6.

MPEC 2010 - E20


__________________


L

Posts: 131433
Date:
Permalink  
 

Comet C/2010 D2 (WISE) was discovered by the WISE satellite observatory on the 25th February, 2010.

Ephemeris



__________________


L

Posts: 131433
Date:
Permalink  
 

Orbital elements:
C/2010 D2 (WISE)
T 2010 July 2.834 TT MPC
q 3.66164 (2000.0) P Q
Peri. 143.791 -0.385210 -0.724843
Node 317.646 +0.511942 +0.347098
e 1.0 Incl. 57.971 +0.767808 -0.595084
From 12 observations 2010 Feb. 25-Mar. 4.

MPEC 2010 - E12


Comet C/2010 D2 (WISE) was discovered by the WISE satellite observatory.
The preliminary orbital elements of the comet  indicate a perihelion passage on the 2nd July, 2010, at a distance of 3.66 AU from the Sun.

__________________
Page 1 of 1  sorted by
Quick Reply

Please log in to post quick replies.



Create your own FREE Forum
Report Abuse
Powered by ActiveBoard